Rbgn^[z[y[W
メイン
   新天体発見情報
     Comet P/2020 K9 (Lemmon-PANSTARRS)
投稿するにはまず登録を

スレッド表示 | 新しいものから 前のトピック | 次のトピック | 下へ
投稿者 スレッド
佐藤裕久
投稿日時: 2020-6-28 14:25
モデレータ
登録日: 2005-6-12
居住地: 日本
投稿: 2111
オンライン
Comet P/2020 K9 (Lemmon-PANSTARRS)

5月22日、Mt Lemmonサーベイの1.5-m 反射望遠鏡と、5月26日、HaleakalaにあるPan-STARRS1 
1.8-m Ritchey-Chretien望遠鏡で得た一夜のCCD画像で小惑星状天体発見の通報があった。
小惑星センターによって受け取られた他の二次的な位置観測とG. V. Williamsによって結合され、
その彗星のような軌道のため6月16日のWilliamsのリンクの後に小惑星センターのPCCP webpage
に公表され、他の望遠鏡によって得られた画像が彗星状であることがわかった。
佐藤英貴氏(東京都文京区, 6月16.74日UT,60秒露出12枚のスタック, 0.51-m f/6.8 アストログラフ, 
Siding Spring, NSW, 遠隔操作:強く集光した8"の非対称のコマが見えるが尾はない。4".9の円形
範囲で測定した光度は19.4等であった)やR. Weryk (ハワイ大学, 6月17.5日, R. Wainscoat, C. 
WipperとT. BurdullisがMauna Keaにある3.6-m Canada-France-Hawaii Telescopeで得た3枚の60秒
gri-バンド画像から、この天体は明らかに彗星で、p.a. 230-280°に約5"の広い尾があり、コマは
近傍の恒星より大きく半値全幅(FWHM)は1".83対0".93)らCCD位置観測者によって彗星状と観測された。

発見位置は次のとおり、

     2020 UT             R.A. (2000) Decl.       Mag.   Observer
     May  22.43234   21 34 47.09   + 2 38 13.0   20.5   Mt. Lemmon
          22.43752   21 34 47.26   + 2 38 14.3   20.6     "
          22.44269   21 34 47.45   + 2 38 15.8   20.7     "
          22.44788   21 34 47.63   + 2 38 17.0   20.7     "
          26.58036   21 37 12.94   + 2 54 17.9   19.5   Pan-STARRS1
          26.59479   21 37 13.41   + 2 54 21.1   19.6     "
          26.60203   21 37 13.64   + 2 54 22.7   19.5     "

MPCの楕円軌道要素と位置推算表は次のとおり、

Orbital elements:
    P/2020 K9 (Lemmon-PANSTARRS)                                                
Epoch 2021 Jan. 26.0 TT = JDT 2459240.5                                         
T 2021 Feb. 13.60346 TT                                 Rudenko                 
q   2.8423749            (2000.0)            P               Q                  
n   0.11478347     Peri.  197.42919     +0.99220527     -0.08172817             
a   4.1932410      Node   166.19916     +0.08341941     +0.99641360             
e   0.3221532      Incl.   23.22517     -0.09257376     +0.02191894             
P   8.59                                                                        
From 22 observations 2020 May 22-June 18, mean residual 0".3.                   
                                                                                
    P/2020 K9 (Lemmon-PANSTARRS)                                                
Epoch 2029 Sept. 21.0 TT = JDT 2462400.5                                        
T 2029 Sept. 22.67371 TT                                Rudenko                 
q   2.8594162            (2000.0)            P               Q                  
n   0.11415872     Peri.  197.46836     +0.99217090     -0.08221221             
a   4.2085257      Node   166.19013     +0.08395489     +0.99636071             
e   0.3205658      Incl.   23.19392     -0.09245797     +0.02250527             
P   8.63                                                                        
From 22 observations 2020 May 22-June 18, mean residual 0".3.                   
                                                                                
    P/2020 K9 (Lemmon-PANSTARRS)                                                
Epoch 2020 May 31.0 TT = JDT 2459000.5                                          
T 2021 Feb. 13.26431 TT                                 Rudenko                 
q   2.8426330            (2000.0)            P               Q                  
n   0.11456202     Peri.  197.34758     +0.99231831     -0.08050144             
a   4.1986429      Node   166.21199     +0.08220297     +0.99651185             
e   0.3229639      Incl.   23.21236     -0.09245018     +0.02199226             
P   8.60                                                                        
From 22 observations 2020 May 22-June 18, mean residual 0".3.                   
                                                                                
Ephemeris:
Date    TT    R. A. (2000) Decl.     Delta      r    Elong.  Phase   m1
2020 05 19    21 32 35.5 +02 23 59   3.0241  3.2193    91.8    18.3  20.0
...
2020 06 03    21 40 56.5 +03 19 19   2.7917  3.1832   103.4    18.1  19.8
...
2020 06 11    21 44 00.7 +03 39 55   2.6720  3.1644   109.9    17.6  19.6
...
2020 06 17    21 45 37.4 +03 50 13   2.5853  3.1505   114.9    17.0  19.5
2020 06 18    21 45 49.9 +03 51 27   2.5711  3.1483   115.7    16.9  19.5
2020 06 19    21 46 01.3 +03 52 32   2.5571  3.1460   116.6    16.8  19.5
...
2020 06 25    21 46 47.5 +03 55 48   2.4751  3.1324   121.8    16.0  19.4
...
2020 07 03    21 46 48.9 +03 50 44   2.3727  3.1146   129.0    14.7  19.3
...
2020 07 18    21 43 49.4 +03 08 14   2.2084  3.0824   143.1    11.4  19.1

(MPEC 2020-M26、CBET 4797)

スレッド表示 | 新しいものから 前のトピック | 次のトピック | トップ

投稿するにはまず登録を
 
© 1999 Tsutomu Seki.